Voltar ao catálogo

JILIN-01 GAOFEN 3H

AtivoCiênciaSSO
NORAD 46460·PAYLOAD·🇨🇳 China

Lançado Sep 15, 2020 de Yellow Sea Launch Area

Loading…

Próximas Passagens (próximas 24 horas)

TLE

AtualizadoSource: Space-Track

Época: Sep 14, 2026, 13:50 UTC

1 46460U 20065G   26257.57659459  .00199083  00000-0  73229-3 0  9991
2 46460  97.2017 314.2682 0000583 306.4050  53.7168 15.87759905333968

Acompanhe JILIN-01 GAOFEN 3H em tempo real com AllMySat

Download on the App Store